"Pseudo-MPEC" for P22icZp

Created 2025 Dec 5 23:35:11 UT using Find_Orb

Click here for an explanation of pseudo-MPECs

 
 Astrometry: 
     P22icZp* C2025 11 29.36203504 57 05.945+19 18 46.97   ~BTGK 21.53wXNEOCPF52
     P22icZp  C2025 11 29.38657204 57 05.602+19 18 46.57   ~BTGK 21.66wXNEOCPF52
     P22icZp  C2025 11 29.39903004 57 05.402+19 18 46.63   ~BTGK 21.52wXNEOCPF52
     P22icZp 1C2025 12 01.20555004 56 40.260+19 18 26.70   ~C1E5 21.8 RVNEOCP691
     P22icZp 1C2025 12 01.22733004 56 39.930+19 18 26.50   ~C1E5 21.9 RVNEOCP691
     P22icZp 1C2025 12 01.24911004 56 39.650+19 18 26.30   ~C1E5 22.1 RVNEOCP691
     P22icZp  C2025 12 02.28755104 56 25.078+19 18 15.31   ~C295 21.7 GWNEOCPH01
     P22icZp  C2025 12 02.29549104 56 24.965+19 18 15.12   ~C295 21.3 GWNEOCPH01
     P22icZp  C2025 12 02.30918604 56 24.766+19 18 14.91   ~C295 21.8 GWNEOCPH01

Station data:
(691) Steward Observatory, Kitt Peak - Spacewatch  (N31.962174 W111.600327)
   US/Arizona.  Observer J. V. Scotti. 0.9-m f/3 reflector + CCD.
(F52) Pan-STARRS 2, Haleakala  (N20.707382 W156.255910)  US/Hawaii.
   Observers J. Herman, T. Lowe, P. Minguez, A. Schultz, I. Smith. Measurers
   K. Chambers, T. de Boer, J. Fairlamb, H. Gao, M. Huber, C.-C. Lin, E.
   Magnier, Y. Ramanjooloo, R. Wainscoat, R. Weryk. 1.8-m Ritchey-Chrétien +
   CCD.
(H01) Magdalena Ridge Observatory, Socorro  (N33.984833 W107.189333)  US/New
   Mexico.  Observers W. H. Ryan, E. V. Ryan. Measurer W. H. Ryan. 2.4-m
   f/8.9 reflector + CCD.

Orbital elements:  P22icZp
   Perihelion 2035 Mar 7.879701 +/- 3674 TT = 21:06:46.1 (JD 2464394.379701)
Epoch 2025 Dec  2.0 TT = JDT 2461011.5   Ju: 0.8788              AutoNEOCP
M 305.463361510 +/- 70              (J2000 ecliptic)
n   0.016121365 +/- 0.0116          Peri.  118.914106 +/- 100
a  15.51915872 +/- 7.46             Node    85.847429 +/- 11
e   0.63824943 +/- 0.225            Incl.   15.642095 +/- 55
P  61.13674                H  9.97  G  0.15   U 10.2  SR
q 5.614064392 +/- 4.97    Q 25.42425305 +/- 5652
From 9 observations 2025 Nov. 29-Dec. 2; mean residual 0".12
Residuals in arcseconds: 
251129 F52  .08+  .03+    251201 691  .17+  .06-    251202 H01  .04-  .11+    
251129 F52  .12+  .11-    251201 691  .14-  .04-    251202 H01  .04-  .01+    
251129 F52  .22-  .08+    251201 691  .27+  .01-    251202 H01  .10-  .06-    

Ephemerides (geocentric):
Date (UTC) HH   RA             Dec           delta  r     elong  mag " sig PA
---- --------  ------------   ------------  ------ ------ -----  --- --------
2025 12 06 00  04 55 32.847   +19 17 36.83  14.715 15.698 176.5 21.8 1.44  70
2025 12 06 01  04 55 32.260   +19 17 36.41  14.715 15.698 176.6 21.8 1.46  70
2025 12 06 02  04 55 31.672   +19 17 35.98  14.714 15.698 176.6 21.8 1.48  70
2025 12 06 03  04 55 31.084   +19 17 35.56  14.714 15.698 176.6 21.8 1.50  70
2025 12 06 04  04 55 30.496   +19 17 35.14  14.714 15.698 176.6 21.8 1.52  70
2025 12 06 05  04 55 29.908   +19 17 34.73  14.714 15.698 176.6 21.8 1.54  70
2025 12 06 06  04 55 29.321   +19 17 34.31  14.714 15.698 176.6 21.8 1.57  70
2025 12 06 07  04 55 28.733   +19 17 33.89  14.714 15.698 176.6 21.8 1.59  70
2025 12 06 08  04 55 28.145   +19 17 33.47  14.714 15.697 176.6 21.8 1.61  70
2025 12 06 09  04 55 27.557   +19 17 33.05  14.714 15.697 176.6 21.8 1.63  69
2025 12 06 10  04 55 26.969   +19 17 32.63  14.713 15.697 176.7 21.8 1.66  69
2025 12 06 11  04 55 26.381   +19 17 32.21  14.713 15.697 176.7 21.8 1.68  69
2025 12 06 12  04 55 25.793   +19 17 31.80  14.713 15.697 176.7 21.8 1.70  69
2025 12 06 13  04 55 25.205   +19 17 31.38  14.713 15.697 176.7 21.8 1.72  69
2025 12 06 14  04 55 24.617   +19 17 30.96  14.713 15.697 176.7 21.8 1.75  69
2025 12 06 15  04 55 24.029   +19 17 30.55  14.713 15.697 176.7 21.8 1.77  69
2025 12 06 16  04 55 23.441   +19 17 30.13  14.713 15.697 176.7 21.8 1.79  69
2025 12 06 17  04 55 22.853   +19 17 29.71  14.713 15.696 176.7 21.8 1.81  69
2025 12 06 18  04 55 22.265   +19 17 29.30  14.713 15.696 176.7 21.8 1.84  69
2025 12 06 19  04 55 21.677   +19 17 28.88  14.712 15.696 176.7 21.8 1.86  69
2025 12 06 20  04 55 21.089   +19 17 28.47  14.712 15.696 176.7 21.8 1.88  69
2025 12 06 21  04 55 20.501   +19 17 28.05  14.712 15.696 176.7 21.8 1.91  69
2025 12 06 22  04 55 19.913   +19 17 27.64  14.712 15.696 176.7 21.8 1.93  69
2025 12 06 23  04 55 19.324   +19 17 27.22  14.712 15.696 176.7 21.8 1.95  69
2025 12 07 00  04 55 18.736   +19 17 26.81  14.712 15.696 176.7 21.8 1.98  69
2025 12 07 01  04 55 18.148   +19 17 26.39  14.712 15.695 176.7 21.8 2.00  69
2025 12 07 02  04 55 17.560   +19 17 25.98  14.712 15.695 176.7 21.8 2.03  69
2025 12 07 03  04 55 16.972   +19 17 25.57  14.712 15.695 176.7 21.8 2.05  69
2025 12 07 04  04 55 16.383   +19 17 25.15  14.711 15.695 176.7 21.8 2.07  69
2025 12 07 05  04 55 15.795   +19 17 24.74  14.711 15.695 176.7 21.8 2.10  69
2025 12 07 06  04 55 15.207   +19 17 24.33  14.711 15.695 176.7 21.8 2.12  69
2025 12 07 07  04 55 14.619   +19 17 23.92  14.711 15.695 176.7 21.8 2.15  69
2025 12 07 08  04 55 14.031   +19 17 23.51  14.711 15.695 176.7 21.8 2.17  69
2025 12 07 09  04 55 13.442   +19 17 23.09  14.711 15.695 176.7 21.8 2.20  69
2025 12 07 10  04 55 12.854   +19 17 22.68  14.711 15.694 176.7 21.8 2.22  69
2025 12 07 11  04 55 12.266   +19 17 22.27  14.711 15.694 176.7 21.8 2.24  69
2025 12 07 12  04 55 11.678   +19 17 21.86  14.711 15.694 176.7 21.8 2.27  69
2025 12 07 13  04 55 11.089   +19 17 21.45  14.711 15.694 176.7 21.8 2.29  69
2025 12 07 14  04 55 10.501   +19 17 21.04  14.710 15.694 176.6 21.8 2.32  69
2025 12 07 15  04 55 09.913   +19 17 20.63  14.710 15.694 176.6 21.8 2.34  69
2025 12 07 16  04 55 09.324   +19 17 20.22  14.710 15.694 176.6 21.8 2.37  69
2025 12 07 17  04 55 08.736   +19 17 19.81  14.710 15.694 176.6 21.8 2.39  69
2025 12 07 18  04 55 08.148   +19 17 19.40  14.710 15.694 176.6 21.8 2.42  69
2025 12 07 19  04 55 07.559   +19 17 19.00  14.710 15.693 176.6 21.8 2.44  69
2025 12 07 20  04 55 06.971   +19 17 18.59  14.710 15.693 176.6 21.8 2.47  69
2025 12 07 21  04 55 06.383   +19 17 18.18  14.710 15.693 176.6 21.8 2.50  69
2025 12 07 22  04 55 05.795   +19 17 17.77  14.710 15.693 176.6 21.8 2.52  69
2025 12 07 23  04 55 05.206   +19 17 17.36  14.710 15.693 176.5 21.8 2.55  69